STARLINK-1805, 46705

Orbit data source: Space-Track

STARLINK-1805, 46705 is a payload satellite owned by SpaceX/Seattle (US) in LEO that was launched on Sun, 18 Oct 2020 UTC via an FALCON 9 launch vehicle from the Air Force Eastern Test Range (AFETR). Payload-class satellites include a variety of spacecraft equipped with specific instruments for various scientific and technological missions. These include communications satellites like Starlink; space stations such as the ISS; scientific satellites like the Hubble; Earth observation satellites from companies like Planet Labs, Umbra, and HawkEye 360; GPS; miniature CubeSats for education and research; and military/defense satellites.

Loading next visibility...
Identifier
46705, 2020-073AM
Orbit
LEO
Last TLE update
19 hours ago
Origin
Manufacturer
SpaceX/Seattle
Mission
Operational Commercial Communications
Bus & Motor
STARLINK, Unknown motor
Mass
260 kg wet, ~248 kg dry
Launch date (UTC)
2020-10-18 (5 years ago)
Launch vehicle
FALCON 9
Launch site
Air Force Eastern Test Range (AFETR)
Object type
Payload
Rocket body
Debris
Shape & HBR
Box + 1 Pan, 8.86 m
Radar Cross Section
13.562 m², Large (>1 m²)

Expand to show TLE details & history

TLE from 19 hours ago
0 STARLINK-1805
1 46705U 20073AM  25189.50871691 -.00000344  00000-0 -42000-5 0  9990
2 46705  53.0554 272.7907 0001108  89.9375 270.1741 15.06386191260113
Epoch: 2025-07-08T12:12Z
TLE epoch observation values (Epoch: 2025-07-08T12:12:33.141Z)
Latitude
Longitude
162.94993°
Altitude
548.131 km
Speed
7.589 km/s
True Right ascension
18h 11m 09s
True Declination
0° 00' 00"
Sunlit
Object was in full shadow at epoch
Visualization orbit readout
Latitude
3.20956°
Longitude
161.77535°
Altitude
547.75 km
Speed
7.59 km/s
Apparent Right ascension
15h 39m 50s
Apparent Declination
-51° 41' 59"
Sunlit
Object is in full shadow
Visualization observer readout
Local Sidereal Time
19:29:34
Azimuth
212.625° SW
Elevation
-14.341°
Doppler factor
1
Orbital elements
Apogee altitude
548.292 km
Perigee altitude
546.757 km
Semi-major axis
6,925.661 km
Eccentricity
0.00011
Inclination
53.0554°
RAAN
272.7907°
Arg. of periapsis
89.9375°
True anomaly
Unknown
Mean anomaly
270.1741°
Eccentric anomaly
Unknown
Mean motion
3.76575 °/min
Orbital period
95.6 mins
BSTAR
-0.0000042
Loading maneuver chart data...
Loading SW <> Apogee altitude chart data...
Loading historical data...
Loading historical data...
Loading historical data...
Loading historical data...
Loading historical data...
Loading historical data...
Loading historical data...

STARLINK-1805 Visibility forecast

Observer location: undefined°, undefined°

Span
Click to sort rows by Start time (UTC) header in descending order
Start Az.
Max El. time (UTC)
Max El. Az.
Max El.
End time (UTC)
End Az.
6 mins2025-07-09 07:28:05.582Z191.695° SSW2025-07-09 07:31:05.582Z137.83° SSE27.711°2025-07-09 07:34:05.582Z74.77° E
6 mins2025-07-09 09:08:05.582Z266.873° W2025-07-09 09:11:05.582Z341.538° N31.456°2025-07-09 09:14:05.582Z35.294° NE
6 mins2025-07-09 14:10:05.582Z332.771° NNW2025-07-09 14:12:05.582Z13.757° NNE30.006°2025-07-09 14:16:05.582Z97.83° ESE
5 mins2025-07-09 15:50:05.582Z277.147° WNW2025-07-09 15:52:05.582Z227.07° WSW29.288°2025-07-09 15:55:05.582Z167.404° S
|